Temp
6 3 2 4 4 3 3 2 3 5 6 4 -2 -4 -5 -7 -8 -8 -9 -9 -10 -10 -10 -8 -7 -4 -2 0 2 6 8 8 9 9 10 10 10 9 9 10 10 11 11 11
2 2 5 5 4 3 2 -0 1 4 5 6 -1 -4 -6 -7 -8 -9 -10 -10 -11 -11 -11 -9 -8 -6 -4 -3 -0 2 4 6 7 7 8 8 9 9 9 9 9 10 10 10
2 4 6 5 3 2 2 -0 1 1 3 5 2 -3 -5 -6 -8 -9 -11 -11 -12 -12 -12 -12 -10 -9 -7 -5 -3 -0 1 3 5 6 7 8 9 9 9 9 8 9 9 9
3 4 4 3 3 2 1 3 3 2 0 -0 4 0 -7 -7 -8 -9 -11 -12 -13 -13 -13 -13 -11 -10 -9 -7 -5 -2 -1 1 3 4 6 7 7 9 10 9 8 8 8 8
1 2 2 2 2 2 0 3 2 2 1 -0 1 -2 -9 -8 -10 -11 -12 -13 -13 -14 -14 -14 -13 -12 -10 -8 -6 -4 -2 -0 1 2 5 6 7 7 10 10 8 8 7 8
1 3 3 3 2 3 3 2 1 0 -2 -6 -2 -2 -11 -11 -12 -12 -12 -13 -14 -14 -14 -13 -12 -11 -10 -8 -7 -6 -5 -3 -1 1 3 5 6 7 7 9 8 8 7 7
0 1 2 2 -1 1 1 -1 -3 -2 -3 -1 -2 -6 -11 -11 -11 -12 -13 -14 -15 -15 -15 -15 -13 -12 -11 -10 -8 -8 -6 -4 -3 -1 1 2 4 5 6 8 9 8 8 7
-3 -2 -0 2 -1 -0 1 -0 -2 -4 -1 -2 -6 -9 -11 -12 -12 -13 -13 -15 -15 -16 -16 -15 -15 -14 -13 -12 -10 -9 -9 -6 -5 -3 -1 0 3 4 5 5 8 10 9 9
-6 -2 -0 0 1 0 -0 -1 -0 -1 -3 -3 -12 -11 -10 -11 -12 -13 -14 -15 -16 -16 -16 -16 -15 -15 -14 -12 -12 -11 -10 -8 -7 -7 -5 -1 1 2 5 5 5 7 9 9
-5 -7 -2 -0 -0 -1 -2 -4 -4 -3 -6 -5 -10 -11 -10 -13 -14 -15 -16 -16 -16 -16 -16 -16 -15 -15 -14 -14 -12 -11 -11 -10 -9 -7 -7 -6 -3 0 1 5 4 5 7 8
-4 -7 -3 -1 -5 -6 -4 -7 -7 -9 -8 -4 -5 -12 -16 -15 -15 -16 -17 -17 -17 -17 -17 -17 -16 -15 -14 -14 -13 -12 -11 -11 -9 -8 -7 -7 -5 -2 -0 3 3 4 5 7
-4 -7 -5 -4 -5 -6 -7 -9 -14 -10 -8 -9 -9 -13 -17 -18 -16 -16 -17 -17 -17 -17 -17 -17 -17 -15 -15 -14 -14 -14 -12 -12 -11 -10 -8 -7 -6 -5 -2 0 1 4 3 4
-6 -7 -7 -5 -5 -5 -8 -9 -10 -10 -11 -12 -10 -11 -16 -17 -17 -16 -17 -17 -17 -18 -18 -17 -17 -16 -16 -15 -14 -14 -13 -12 -12 -10 -9 -8 -7 -6 -5 -3 -1 1 2 3
-6 -10 -7 -6 -7 -8 -11 -10 -11 -10 -11 -13 -13 -16 -20 -20 -20 -17 -17 -17 -18 -18 -18 -18 -17 -18 -17 -16 -16 -15 -14 -13 -12 -11 -10 -9 -8 -8 -6 -5 -4 -2 -0 1
-10 -13 -10 -11 -12 -11 -12 -12 -12 -13 -14 -13 -16 -17 -22 -22 -22 -17 -17 -17 -18 -18 -18 -18 -18 -18 -18 -17 -16 -15 -15 -14 -13 -12 -11 -10 -9 -8 -7 -6 -5 -4 -3 -1
-14 -13 -12 -12 -12 -11 -14 -14 -14 -13 -14 -17 -18 -16 -21 -16 -16 -17 -17 -18 -18 -19 -19 -19 -19 -18 -18 -18 -17 -16 -16 -15 -14 -13 -12 -11 -10 -9 -8 -7 -6 -5 -5 -3
-19 -18 -16 -14 -10 -12 -16 -18 -15 -14 -17 -20 -20 -20 -21 -23 -18 -18 -18 -18 -19 -19 -19 -19 -19 -19 -19 -18 -19 -18 -17 -15 -14 -14 -13 -12 -11 -10 -9 -8 -7 -6 -6 -5
-20 -21 -17 -14 -14 -16 -14 -19 -18 -17 -18 -21 -20 -23 -20 -17 -17 -18 -18 -18 -19 -19 -19 -19 -19 -19 -19 -18 -18 -18 -18 -16 -15 -14 -14 -13 -11 -11 -10 -8 -7 -7 -6 -6
-17 -22 -18 -15 -15 -15 -15 -16 -18 -20 -18 -25 -21 -21 -17 -17 -18 -18 -19 -18 -19 -19 -20 -19 -20 -20 -19 -19 -18 -18 -18 -17 -16 -15 -15 -14 -13 -12 -11 -10 -9 -7 -7 -6
-18 -23 -17 -21 -16 -14 -15 -18 -16 -19 -18 -17 -16 -17 -18 -18 -23 -22 -18 -18 -19 -19 -20 -20 -19 -20 -20 -19 -19 -19 -18 -18 -17 -16 -16 -15 -14 -13 -12 -11 -10 -9 -8 -7
-18 -22 -18 -20 -21 -17 -19 -17 -17 -18 -15 -15 -16 -16 -17 -21 -17 -17 -18 -19 -19 -19 -19 -20 -20 -20 -20 -20 -20 -19 -18 -18 -18 -18 -17 -15 -14 -14 -13 -12 -11 -10 -8 -8
-17 -19 -18 -23 -21 -14 -16 -19 -17 -15 -14 -14 -15 -15 -16 -17 -17 -17 -18 -18 -19 -19 -19 -19 -19 -19 -20 -21 -20 -19 -18 -18 -18 -18 -17 -16 -15 -14 -14 -13 -12 -11 -10 -9
-16 -17 -17 -16 -15 -14 -14 -11 -11 -12 -12 -13 -14 -14 -16 -17 -16 -17 -17 -18 -19 -19 -19 -20 -20 -20 -20 -20 -20 -19 -19 -19 -18 -18 -17 -17 -16 -15 -14 -14 -13 -12 -12 -11
-21 -20 -21 -18 -18 -16 -12 -11 -12 -12 -12 -13 -13 -14 -16 -16 -16 -17 -17 -17 -18 -19 -19 -19 -20 -20 -20 -19 -20 -20 -19 -19 -19 -18 -17 -17 -16 -16 -15 -15 -14 -14 -13 -13
-18 -20 -22 -21 -16 -13 -11 -11 -11 -11 -12 -13 -13 -14 -15 -16 -16 -16 -17 -17 -17 -18 -19 -19 -19 -19 -20 -20 -20 -20 -19 -19 -19 -19 -18 -18 -17 -17 -16 -16 -15 -15 -15 -14
-18 -19 -17 -14 -10 -11 -10 -11 -11 -12 -12 -13 -14 -14 -14 -15 -15 -16 -16 -17 -17 -18 -18 -19 -19 -18 -18 -20 -20 -20 -19 -19 -19 -19 -19 -19 -18 -18 -18 -16 -16 -16 -15 -14
Height
1461 1471 1480 1476 1473 1474 1473 1472 1470 1461 1458 1463 1474 1481 1483 1484 1478 1478 1477 1476 1474 1469 1465 1456 1449 1442 1437 1433 1428 1429 1430 1431 1435 1436 1441 1443 1447 1451 1455 1457 1460 1463 1467 1470
1472 1478 1474 1471 1472 1473 1475 1480 1475 1462 1460 1456 1474 1483 1488 1484 1485 1486 1483 1481 1477 1470 1462 1455 1449 1442 1437 1433 1430 1427 1429 1429 1432 1435 1433 1437 1443 1447 1452 1455 1458 1461 1464 1467
1476 1478 1472 1470 1473 1472 1474 1480 1473 1472 1459 1456 1459 1476 1483 1487 1489 1487 1485 1487 1479 1475 1468 1459 1451 1445 1439 1433 1429 1426 1426 1427 1429 1431 1432 1432 1440 1441 1445 1450 1453 1456 1460 1464
1478 1476 1473 1473 1475 1477 1479 1469 1466 1464 1467 1471 1451 1459 1489 1489 1490 1491 1490 1486 1482 1477 1472 1464 1454 1445 1440 1436 1431 1426 1427 1423 1426 1428 1428 1432 1432 1436 1439 1444 1448 1452 1455 1459
1489 1482 1478 1477 1479 1477 1478 1466 1465 1460 1459 1462 1452 1467 1499 1491 1498 1498 1498 1494 1488 1483 1476 1467 1459 1453 1448 1438 1431 1427 1423 1425 1426 1425 1428 1426 1429 1433 1435 1437 1443 1448 1451 1454
1486 1481 1480 1478 1479 1473 1468 1466 1461 1456 1459 1488 1462 1465 1513 1506 1512 1508 1504 1499 1494 1487 1479 1471 1461 1456 1450 1444 1437 1433 1429 1427 1427 1425 1426 1424 1424 1427 1430 1430 1436 1441 1446 1450
1492 1488 1483 1481 1483 1471 1469 1474 1482 1473 1469 1463 1466 1481 1513 1513 1513 1512 1509 1504 1498 1489 1483 1477 1467 1458 1451 1445 1439 1434 1431 1426 1423 1423 1421 1421 1418 1422 1423 1426 1429 1434 1440 1444
1504 1494 1489 1483 1486 1481 1471 1472 1479 1488 1463 1466 1481 1504 1516 1516 1516 1514 1511 1506 1501 1497 1491 1481 1471 1465 1460 1455 1444 1441 1437 1428 1422 1418 1417 1417 1418 1415 1417 1424 1425 1428 1432 1438
1518 1500 1488 1483 1479 1478 1474 1472 1470 1466 1469 1471 1518 1516 1516 1515 1516 1515 1511 1507 1502 1495 1487 1483 1478 1474 1468 1460 1449 1449 1442 1431 1427 1422 1419 1415 1413 1412 1412 1415 1419 1422 1427 1431
1511 1517 1489 1482 1479 1480 1482 1486 1484 1480 1501 1490 1510 1514 1507 1517 1519 1517 1513 1509 1506 1501 1495 1489 1483 1478 1471 1465 1456 1451 1442 1433 1429 1424 1420 1416 1413 1409 1411 1408 1414 1416 1422 1426
1508 1515 1497 1486 1498 1500 1493 1502 1502 1504 1500 1481 1480 1518 1527 1525 1523 1519 1516 1513 1508 1503 1497 1492 1486 1479 1472 1465 1458 1453 1444 1436 1431 1425 1420 1415 1411 1406 1403 1401 1407 1410 1414 1420
1509 1513 1509 1499 1504 1503 1505 1514 1526 1517 1507 1506 1504 1519 1526 1525 1523 1520 1517 1514 1510 1505 1499 1493 1487 1481 1475 1468 1463 1457 1448 1440 1435 1427 1422 1415 1410 1405 1401 1402 1402 1404 1410 1415
1511 1514 1516 1500 1503 1501 1510 1517 1518 1515 1516 1522 1513 1512 1525 1525 1523 1521 1518 1514 1511 1506 1500 1494 1488 1482 1475 1469 1463 1456 1450 1443 1436 1429 1424 1416 1410 1406 1403 1400 1396 1402 1403 1410
1509 1519 1517 1513 1513 1518 1525 1520 1520 1516 1521 1526 1521 1530 1532 1528 1524 1519 1517 1514 1510 1505 1501 1496 1490 1485 1480 1473 1467 1460 1453 1446 1440 1433 1427 1420 1413 1410 1406 1404 1398 1397 1401 1405
1518 1533 1520 1522 1525 1523 1527 1527 1525 1525 1529 1526 1530 1531 1535 1528 1523 1518 1516 1513 1509 1505 1500 1496 1491 1486 1480 1475 1469 1462 1456 1450 1445 1436 1431 1425 1419 1413 1409 1404 1401 1396 1398 1400
1523 1530 1525 1528 1527 1524 1535 1531 1530 1526 1528 1532 1534 1526 1525 1522 1520 1517 1515 1512 1508 1505 1501 1497 1492 1487 1482 1476 1469 1464 1460 1453 1446 1441 1436 1429 1423 1416 1411 1407 1404 1400 1399 1398
1536 1541 1539 1538 1522 1527 1546 1541 1533 1530 1532 1538 1541 1528 1523 1520 1518 1515 1512 1511 1508 1504 1501 1497 1493 1488 1483 1479 1474 1467 1462 1456 1451 1446 1442 1435 1427 1421 1415 1411 1408 1405 1407 1397
1538 1545 1540 1537 1536 1558 1531 1532 1532 1532 1528 1529 1526 1523 1520 1518 1516 1513 1511 1510 1508 1504 1500 1496 1492 1488 1484 1480 1475 1471 1466 1460 1453 1448 1444 1438 1430 1427 1421 1416 1413 1410 1404 1405
1526 1542 1546 1543 1544 1538 1532 1531 1535 1539 1529 1522 1522 1519 1518 1517 1514 1509 1509 1508 1506 1503 1499 1495 1491 1487 1483 1479 1475 1471 1465 1460 1455 1450 1445 1440 1435 1431 1426 1421 1415 1412 1412 1411
1528 1533 1540 1558 1553 1545 1529 1528 1529 1531 1535 1516 1517 1515 1516 1516 1522 1509 1507 1505 1503 1500 1497 1493 1490 1487 1483 1479 1476 1472 1466 1460 1455 1451 1448 1445 1441 1436 1433 1428 1422 1420 1418 1417
1542 1549 1549 1557 1567 1540 1526 1525 1528 1540 1526 1511 1512 1512 1512 1514 1509 1505 1504 1502 1499 1497 1494 1491 1488 1485 1482 1479 1475 1472 1468 1464 1461 1456 1451 1447 1444 1440 1438 1433 1428 1425 1423 1421
1540 1551 1550 1565 1567 1539 1519 1526 1529 1513 1508 1508 1508 1506 1505 1504 1502 1501 1500 1498 1496 1493 1490 1488 1485 1483 1480 1477 1474 1470 1467 1464 1460 1458 1455 1451 1446 1443 1439 1434 1432 1430 1427 1425
1539 1531 1537 1532 1523 1509 1509 1506 1505 1505 1503 1502 1502 1502 1500 1499 1497 1497 1495 1494 1492 1490 1487 1485 1482 1480 1478 1475 1472 1469 1466 1463 1460 1457 1454 1452 1448 1443 1443 1441 1437 1432 1432 1432
1526 1524 1530 1525 1508 1503 1502 1502 1501 1501 1500 1500 1499 1497 1496 1494 1493 1491 1490 1489 1488 1486 1484 1482 1479 1477 1475 1473 1471 1468 1465 1463 1460 1458 1454 1450 1447 1444 1444 1441 1439 1438 1437 1440
1517 1520 1522 1518 1500 1498 1495 1497 1498 1497 1496 1495 1494 1492 1490 1489 1487 1486 1485 1484 1483 1481 1480 1478 1476 1474 1472 1470 1469 1467 1464 1461 1458 1455 1453 1450 1450 1447 1445 1445 1442 1441 1442 1443
1502 1501 1508 1502 1491 1493 1494 1494 1494 1493 1491 1490 1488 1486 1485 1484 1481 1481 1479 1479 1478 1476 1475 1473 1472 1471 1469 1467 1465 1464 1462 1459 1457 1455 1453 1451 1450 1447 1448 1447 1446 1445 1445 1443
Wind_Speed
14 7 5 6 4 5 7 4 8 10 6 8 15 14 15 22 32 32 33 34 36 36 36 33 32 30 26 19 15 5 6 6 11 19 22 25 28 24 22 25 25 25 25 25
7 6 3 6 10 10 10 3 5 5 14 8 8 11 13 18 21 27 29 32 34 39 44 42 37 33 31 28 22 11 8 3 6 9 18 20 30 26 25 27 27 28 28 28
4 6 10 10 7 12 8 2 7 8 7 5 6 6 6 10 25 28 31 30 35 36 39 45 42 39 34 31 28 21 17 10 7 8 13 19 28 30 28 28 29 31 32 31
5 14 12 7 6 12 7 6 7 11 7 3 2 5 4 6 16 20 29 33 34 37 39 43 44 42 39 35 28 24 19 17 12 9 9 12 17 36 30 32 32 30 32 33
7 8 12 8 9 11 8 14 7 12 12 4 10 1 4 6 12 18 23 29 32 35 36 40 41 40 37 35 32 27 22 19 16 12 13 10 18 29 32 32 31 29 33 35
5 11 6 2 16 12 11 7 13 6 3 0 4 3 4 7 9 13 21 26 30 33 37 39 37 36 37 34 31 28 23 19 16 14 13 13 14 20 36 36 34 32 33 37
5 8 7 3 16 11 5 6 4 4 3 2 6 6 2 7 9 12 15 22 28 33 36 38 40 41 40 38 35 33 29 24 19 15 14 13 13 17 25 39 36 37 37 39
5 7 9 17 5 8 12 2 3 4 6 7 9 3 1 7 11 15 17 21 26 32 34 36 39 39 38 36 34 33 31 27 24 19 15 14 15 14 26 35 43 41 42 40
3 4 18 16 11 7 6 5 4 4 3 1 2 2 5 8 11 15 19 23 26 33 36 36 35 36 36 35 35 33 32 27 24 23 18 14 15 15 16 37 41 46 45 44
4 7 7 9 9 10 6 5 5 4 3 4 3 2 1 9 10 11 16 22 25 29 31 33 34 34 34 34 33 31 32 30 27 22 22 17 13 11 13 28 36 47 49 46
4 3 7 6 7 5 6 5 4 2 1 2 4 3 2 4 6 8 14 20 23 28 30 31 32 32 33 33 34 33 33 32 28 24 22 22 15 9 8 16 26 38 45 48
2 1 4 3 7 13 9 4 3 3 6 2 2 3 1 3 6 10 15 20 22 24 27 29 31 32 32 33 33 34 33 33 31 27 23 22 19 12 6 11 17 33 40 47
4 2 3 1 5 1 5 6 4 3 2 2 1 1 1 6 6 8 11 18 21 24 26 29 29 32 33 33 33 34 34 32 31 29 26 22 20 17 10 4 8 22 29 41
3 0 3 3 2 2 3 8 9 3 1 4 3 4 4 7 7 14 10 16 19 23 25 27 28 31 30 31 32 32 32 31 30 29 28 25 23 21 15 8 2 10 22 29
4 2 2 0 3 4 3 5 5 3 2 3 3 3 5 6 6 11 13 18 20 23 25 27 28 29 30 30 30 29 30 30 29 28 28 27 23 21 16 10 5 1 10 19
5 3 2 1 3 3 2 3 3 1 2 2 5 5 6 8 10 14 16 15 19 21 23 25 27 26 29 30 31 29 29 29 28 27 27 26 23 23 21 16 11 7 3 8
3 1 3 3 4 2 5 4 2 4 2 5 1 6 3 5 12 18 11 11 16 20 20 24 25 25 25 26 27 29 28 26 24 24 24 25 24 24 23 21 14 12 8 6
2 3 1 2 3 3 5 4 4 5 8 6 4 5 6 9 14 10 9 10 17 20 21 22 22 22 22 22 23 25 25 23 22 23 24 24 24 24 23 21 20 16 15 11
3 4 2 2 2 4 4 2 1 3 6 5 5 6 10 11 17 9 10 10 19 19 20 21 19 20 20 20 21 23 24 24 22 22 24 24 23 22 23 22 22 21 17 13
4 5 4 4 3 3 5 3 8 7 4 7 11 13 10 5 3 4 6 19 21 19 20 19 18 17 17 18 19 20 21 23 25 24 22 21 20 20 20 20 20 20 21 18
4 4 3 1 1 7 5 10 10 6 5 11 14 15 11 5 10 15 20 19 18 19 19 16 17 15 15 17 19 19 19 20 21 21 20 17 18 17 17 18 17 17 17 19
4 3 2 2 3 5 13 6 5 4 6 9 12 14 16 18 18 19 19 16 16 18 18 17 16 15 14 16 18 19 18 19 19 18 17 16 15 15 15 17 18 16 16 16
2 5 3 7 5 2 24 12 10 15 17 17 17 16 17 19 21 19 18 16 16 17 18 18 16 16 15 16 18 19 18 18 17 17 16 15 14 12 12 14 17 20 20 17
3 5 2 4 4 14 22 20 22 22 21 18 17 17 18 22 21 22 19 18 18 19 18 17 16 17 15 14 16 17 17 16 16 15 14 14 13 12 9 10 13 19 25 22
3 10 5 6 13 16 15 13 10 11 14 17 17 18 20 20 23 22 22 21 20 19 19 17 16 15 14 15 15 16 16 14 14 15 14 13 12 11 9 7 7 9 15 17
13 7 5 5 6 2 5 8 12 15 17 16 17 20 21 22 24 23 24 22 21 20 20 19 16 15 13 16 16 15 14 13 13 12 13 12 11 11 9 6 3 1 2 7
Wind_Direction
342 62 30 346 333 280 302 266 271 313 307 3 85 69 54 46 42 33 27 21 15 10 7 11 13 14 14 15 27 68 195 179 213 183 185 215 217 218 213 201 200 196 197 198
10 71 1 9 22 19 15 342 338 318 336 315 94 83 68 50 49 39 28 19 13 7 6 10 12 14 16 12 7 24 15 282 228 227 184 188 215 219 220 208 205 206 208 207
65 5 357 349 23 9 352 285 307 277 305 267 173 131 48 59 43 32 28 19 15 9 3 7 11 13 12 13 9 4 358 353 309 271 223 196 207 212 211 213 213 214 213 211
14 334 346 359 23 7 324 309 329 330 341 258 321 273 64 26 30 25 17 13 10 7 7 9 11 13 13 10 7 2 351 349 319 312 244 209 192 203 209 221 215 217 208 206
306 341 343 38 6 337 258 313 303 302 285 286 270 266 334 31 8 9 12 9 6 6 8 9 13 13 12 13 10 2 355 343 323 318 279 244 210 209 217 222 222 217 203 202
304 340 359 30 351 305 310 328 317 287 198 70 350 357 28 21 1 1 6 6 5 5 8 13 16 14 14 12 14 9 2 354 338 308 298 256 232 210 211 214 219 217 205 200
337 319 335 28 345 323 1 346 334 322 350 0 354 62 40 45 36 15 7 5 3 7 9 11 15 14 14 12 11 12 4 359 347 329 303 288 233 216 212 217 222 218 208 202
9 332 360 320 283 282 297 204 234 277 305 293 23 77 100 66 36 23 14 7 5 9 11 12 15 15 14 14 15 12 9 5 0 344 316 305 253 239 206 214 221 227 216 210
342 258 312 308 316 1 328 333 290 300 268 321 162 66 158 45 25 17 10 7 4 3 7 11 14 16 14 14 19 14 12 13 9 3 351 304 282 242 226 207 216 216 217 211
266 303 283 313 349 20 52 345 25 356 340 307 283 173 326 354 2 6 4 0 358 1 4 8 10 11 15 15 16 16 19 17 13 9 4 354 315 266 241 202 212 218 215 213
340 141 296 344 24 354 3 14 353 183 83 272 326 259 195 28 8 4 356 355 355 355 359 2 6 8 12 15 15 16 18 19 16 16 12 3 342 312 248 209 210 219 220 215
272 209 288 336 105 92 68 15 95 98 325 317 233 271 260 131 41 13 358 355 356 355 357 360 2 5 9 13 14 14 17 20 19 18 19 15 3 342 294 214 204 212 221 220
351 331 315 280 174 100 58 30 345 268 206 245 268 324 140 15 359 359 359 354 352 353 357 0 1 4 6 9 11 13 14 17 19 21 20 25 20 12 359 280 198 212 221 224
31 22 168 245 271 336 16 10 357 329 49 318 250 296 303 327 328 335 351 351 352 350 357 358 1 1 4 5 8 10 12 14 17 22 24 25 32 25 17 6 289 211 215 222
72 184 127 238 112 85 76 5 11 48 242 195 269 250 256 271 283 331 330 338 350 352 355 356 357 357 359 1 7 9 11 12 14 21 25 26 31 39 29 33 37 119 222 222
4 282 83 218 153 127 148 360 338 27 326 321 334 279 213 317 323 327 322 330 342 345 348 350 352 355 358 359 0 6 6 10 13 18 22 27 31 41 43 41 49 79 167 201
69 82 44 291 216 112 356 243 277 292 201 163 259 236 275 312 321 322 309 321 336 339 339 343 346 350 353 356 357 1 3 7 11 16 21 27 33 36 46 50 53 72 85 121
106 77 98 217 41 7 244 204 196 236 246 228 260 261 259 297 314 305 289 315 336 334 334 339 341 344 350 351 356 359 0 6 12 16 20 25 32 34 39 55 61 65 74 95
140 114 0 117 195 296 317 234 137 104 284 212 218 265 281 304 311 264 260 303 330 331 332 334 336 341 344 350 355 357 0 2 9 17 19 22 26 32 35 46 57 66 72 89
80 84 108 33 116 214 236 225 154 131 313 212 220 254 268 319 4 259 292 317 318 322 329 330 334 336 341 347 353 355 1 5 6 10 14 17 23 33 34 41 52 64 74 79
350 354 122 357 224 289 229 157 161 68 248 201 224 249 253 212 242 292 301 304 307 319 324 329 328 334 339 342 344 350 357 4 8 6 3 10 19 33 36 47 55 61 78 84
178 131 225 75 53 304 163 126 153 207 238 264 265 272 265 274 285 290 299 302 309 315 319 326 328 334 335 336 337 345 351 356 360 4 8 4 14 29 37 51 59 67 71 86
326 185 191 176 218 217 190 220 253 269 274 282 281 285 279 281 287 295 297 303 305 309 313 318 318 327 328 330 335 340 346 351 354 357 3 13 9 30 37 56 63 66 64 63
271 175 187 38 269 236 241 254 263 267 276 289 286 283 275 280 292 293 297 303 302 302 306 310 308 313 317 329 330 332 339 346 349 353 358 6 14 21 32 50 67 67 60 41
170 148 182 264 274 271 271 253 275 278 279 282 285 283 278 278 284 289 291 294 298 298 299 300 303 304 307 320 325 325 332 343 348 354 358 2 8 23 29 35 56 75 68 49
189 184 167 224 224 198 292 313 315 301 299 297 289 287 283 277 282 287 287 291 289 291 293 292 294 295 308 310 315 317 326 333 341 349 356 2 10 16 13 26 46 35 140 126